CW4629 Weather Reports


Display with metric or nautical units.
time (UTC)temp
F
wind
direction
speed
MPH
gust
MPH
rain 1hr
in
rain 24hr
in
rain mn
in
humidity
%
barometer
mb
20260508041020 73 315 0.0 0.0 0.00 0.00 0.00 20 1014.3
20260508040921 73 315 0.0 1.0 0.00 0.00 0.00 20 1014.4
20260508035921 73 315 0.0 0.0 0.00 0.00 0.00 22 1014.2
20260508034922 73 315 0.0 2.0 0.00 0.00 0.00 22 1013.9
20260508033920 74 337 0.0 0.0 0.00 0.00 0.00 20 1014.0
20260508032919 75 360 0.0 0.0 0.00 0.00 0.00 19 1013.8
20260508031936 76 360 3.0 4.0 0.00 0.00 0.00 18 1013.7
20260508025920 77 39 1.0 3.0 0.00 0.00 0.00 19 1013.6
20260508024937 78 337 0.0 1.0 0.00 0.00 0.00 17 1013.5
20260508024021 80 292 1.0 3.0 0.00 0.00 0.00 15 1013.4
20260508023021 82 153 0.0 0.0 0.00 0.00 0.00 13 1013.2
20260508022019 84 202 0.0 0.0 0.00 0.00 0.00 12 1013.1
20260508021920 84 202 0.0 0.0 0.00 0.00 0.00 12 1013.0
20260508020918 85 202 0.0 0.0 0.00 0.00 0.00 11 1013.1
20260508020018 85 180 0.0 0.0 0.00 0.00 0.00 11 1013.1
20260508015019 85 199 3.0 6.0 0.00 0.00 0.00 10 1013.1
20260508014034 85 215 4.0 6.0 0.00 0.00 0.00 10 1013.1
20260508013119 84 213 5.0 8.0 0.00 0.00 0.00 10 1013.2
20260508012138 84 199 5.0 7.0 0.00 0.00 0.00 10 1013.1
20260508011121 85 201 3.0 6.0 0.00 0.00 0.00 10 1013.2
20260508010121 85 195 3.0 6.0 0.00 0.00 0.00 10 1013.3
20260508005135 85 197 6.0 8.0 0.00 0.00 0.00 10 1013.3
20260508004220 86 209 6.0 9.0 0.00 0.00 0.00 10 1013.4
20260508003221 86 243 4.0 6.0 0.00 0.00 0.00 10 1013.3
20260508002221 86 206 6.0 10.0 0.00 0.00 0.00 10 1013.3
20260508001221 87 258 8.0 14.0 0.00 0.00 0.00 10 1013.3
20260508000219 88 234 7.0 10.0 0.00 0.00 0.00 10 1013.5
20260508000122 88 239 7.0 12.0 0.00 0.00 0.00 10 1013.4
20260507235135 88 242 5.0 8.0 0.00 0.00 0.00 10 1013.5
20260507235035 88 242 8.0 11.0 0.00 0.00 0.00 10 1013.5
20260507234036 88 285 10.0 14.0 0.00 0.00 0.00 9 1013.4
20260507232119 88 226 3.0 6.0 0.00 0.00 0.00 10 1013.6
20260507232020 88 247 5.0 9.0 0.00 0.00 0.00 10 1013.6
20260507231018 87 280 6.0 9.0 0.00 0.00 0.00 10 1013.7
20260507225020 89 282 7.0 13.0 0.00 0.00 0.00 10 1013.9
20260507224035 91 268 8.0 10.0 0.00 0.00 0.00 9 1013.8
20260507223018 90 137 4.0 7.0 0.00 0.00 0.00 10 1014.1
20260507220039 91 151 3.0 5.0 0.00 0.00 0.00 8 1014.7
20260507215118 91 270 0.0 2.0 0.00 0.00 0.00 10 1014.9
20260507212234 88 146 0.0 2.0 0.00 0.00 0.00 10 1015.7
20260507211220 87 15 0.0 2.0 0.00 0.00 0.00 10 1016.0
20260507210234 87 182 2.0 7.0 0.00 0.00 0.00 11 1016.1
20260507205318 88 126 3.0 4.0 0.00 0.00 0.00 10 1016.3
20260507204334 88 270 1.0 3.0 0.00 0.00 0.00 9 1016.5
20260507203420 87 146 3.0 5.0 0.00 0.00 0.00 10 1016.7
20260507202435 85 247 0.0 3.0 0.00 0.00 0.00 11 1016.9
20260507201521 85 113 5.0 8.0 0.00 0.00 0.00 10 1017.1
20260507200534 85 154 4.0 5.0 0.00 0.00 0.00 12 1017.2
20260507194635 83 114 1.0 4.0 0.00 0.00 0.00 12 1017.7
20260507193618 84 45 3.0 5.0 0.00 0.00 0.00 12 1018.0
20260507192634 83 35 2.0 4.0 0.00 0.00 0.00 12 1018.2
20260507191717 82 50 3.0 5.0 0.00 0.00 0.00 11 1018.4
20260507190734 83 156 0.0 1.0 0.00 0.00 0.00 12 1018.6
20260507185819 82 180 3.0 5.0 0.00 0.00 0.00 12 1018.9
20260507183918 81 73 3.0 7.0 0.00 0.00 0.00 12 1019.2
20260507182921 79 16 3.0 6.0 0.00 0.00 0.00 13 1019.4
20260507181920 79 189 1.0 3.0 0.00 0.00 0.00 13 1019.6
20260507180934 79 173 3.0 4.0 0.00 0.00 0.00 13 1019.8
20260507175935 79 196 4.0 5.0 0.00 0.00 0.00 13 1019.9
20260507175818 79 190 5.0 6.0 0.00 0.00 0.00 13 1020.0
20260507174836 79 250 2.0 3.0 0.00 0.00 0.00 13 1020.2
20260507173921 77 247 0.0 0.0 0.00 0.00 0.00 14 1020.3
20260507172934 76 112 0.0 2.0 0.00 0.00 0.00 14 1020.4
20260507172020 77 111 2.0 4.0 0.00 0.00 0.00 14 1020.6
20260507171018 75 55 0.0 3.0 0.00 0.00 0.00 15 1020.7
20260507170018 74 112 3.0 5.0 0.00 0.00 0.00 16 1020.9
20260507165019 73 205 3.0 5.0 0.00 0.00 0.00 16 1021.0
20260507164034 73 117 3.0 5.0 0.00 0.00 0.00 18 1021.2
20260507163018 73 181 3.0 6.0 0.00 0.00 0.00 19 1021.4
20260507162937 73 156 3.0 5.0 0.00 0.00 0.00 19 1021.4
20260507162018 72 230 0.0 1.0 0.00 0.00 0.00 19 1021.4
20260507161035 72 202 1.0 3.0 0.00 0.00 0.00 19 1021.6
20260507160133 70 164 1.0 2.0 0.00 0.00 0.00 19 1021.7
20260507155135 69 180 0.0 2.0 0.00 0.00 0.00 21 1021.8
20260507155034 69 160 0.0 1.0 0.00 0.00 0.00 21 1021.8
20260507154119 68 180 2.0 4.0 0.00 0.00 0.00 22 1022.0
20260507153135 68 172 2.0 3.0 0.00 0.00 0.00 22 1022.0
20260507151236 67 180 0.0 0.0 0.00 0.00 0.00 20 1022.4
20260507150236 67 180 2.0 3.0 0.00 0.00 0.00 20 1022.3
20260507145318 66 135 0.0 0.0 0.00 0.00 0.00 22 1022.2
20260507144320 64 225 0.0 0.0 0.00 0.00 0.00 24 1022.3
20260507143417 62 225 0.0 0.0 0.00 0.00 0.00 25 1022.4
20260507142421 62 270 0.0 1.0 0.00 0.00 0.00 25 1022.4
20260507141436 62 22 0.0 1.0 0.00 0.00 0.00 27 1022.3
20260507140419 60 22 0.0 1.0 0.00 0.00 0.00 28 1022.3
20260507135436 58 22 0.0 1.0 0.00 0.00 0.00 30 1022.2
20260507133519 53 356 0.0 2.0 0.00 0.00 0.00 42 1022.1
20260507132518 52 22 0.0 1.0 0.00 0.00 0.00 42 1022.1
20260507130618 49 22 0.0 0.0 0.00 0.00 0.00 44 1021.8
20260507125619 48 22 0.0 0.0 0.00 0.00 0.00 41 1021.7
20260507123718 49 22 0.0 0.0 0.00 0.00 0.00 42 1021.4
20260507122720 49 22 0.0 0.0 0.00 0.00 0.00 40 1021.4
20260507121818 49 22 0.0 0.0 0.00 0.00 0.00 42 1021.3
20260507120820 50 22 0.0 0.0 0.00 0.00 0.00 41 1021.3
20260507115918 50 22 0.0 0.0 0.00 0.00 0.00 39 1021.4
20260507115834 50 22 0.0 0.0 0.00 0.00 0.00 39 1021.4
20260507114919 51 22 0.0 0.0 0.00 0.00 0.00 37 1021.3
20260507112918 51 315 0.0 0.0 0.00 0.00 0.00 39 1021.3
20260507111017 52 315 0.0 1.0 0.00 0.00 0.00 33 1021.2
20260507110918 53 315 0.0 0.0 0.00 0.00 0.00 33 1021.2
20260507104919 53 337 0.0 1.0 0.00 0.00 0.00 34 1021.2
20260507103919 53 337 1.0 1.0 0.00 0.00 0.00 37 1021.0
20260507102917 52 337 1.0 2.0 0.00 0.00 0.00 41 1021.0
20260507101919 52 337 0.0 0.0 0.00 0.00 0.00 41 1021.0
20260507101018 53 337 1.0 2.0 0.00 0.00 0.00 40 1020.8
20260507095033 53 337 1.0 3.0 0.00 0.00 0.00 38 1021.0
20260507094018 54 5 1.0 1.0 0.00 0.00 0.00 36 1020.9
20260507092035 55 135 0.0 0.0 0.00 0.00 0.00 33 1020.7
20260507090118 55 225 0.0 0.0 0.00 0.00 0.00 34 1020.7
20260507085118 56 225 0.0 0.0 0.00 0.00 0.00 34 1020.6
20260507084118 56 225 0.0 0.0 0.00 0.00 0.00 33 1020.6
20260507083134 57 337 0.0 0.0 0.00 0.00 0.00 33 1020.6
20260507081134 57 45 0.0 1.0 0.00 0.00 0.00 30 1020.4
20260507074218 60 157 0.0 0.0 0.00 0.00 0.00 24 1020.6
20260507073217 61 157 1.0 2.0 0.00 0.00 0.00 23 1020.7
20260507073117 61 124 0.0 1.0 0.00 0.00 0.00 23 1020.8
20260507072117 60 133 0.0 2.0 0.00 0.00 0.00 25 1020.7
20260507071117 61 360 0.0 0.0 0.00 0.00 0.00 23 1020.7
20260507070133 61 3 2.0 4.0 0.00 0.00 0.00 23 1020.5
20260507065217 62 360 0.0 0.0 0.00 0.00 0.00 21 1020.6
20260507065121 63 360 0.0 3.0 0.00 0.00 0.00 21 1020.6
20260507064216 64 115 0.0 1.0 0.00 0.00 0.00 20 1020.3
20260507064117 64 94 0.0 0.0 0.00 0.00 0.00 20 1020.4
20260507063117 65 135 0.0 0.0 0.00 0.00 0.00 19 1020.4
20260507062119 66 270 1.0 1.0 0.00 0.00 0.00 17 1020.3
20260507061217 65 292 0.0 2.0 0.00 0.00 0.00 18 1020.2
20260507060233 67 170 2.0 4.0 0.00 0.00 0.00 17 1020.0
20260507055317 67 247 0.0 1.0 0.00 0.00 0.00 17 1020.0
20260507054334 67 202 3.0 4.0 0.00 0.00 0.00 17 1020.0
20260507054216 67 202 4.0 5.0 0.00 0.00 0.00 17 1020.0
20260507053217 66 192 3.0 5.0 0.00 0.00 0.00 17 1020.0
20260507052217 66 189 4.0 5.0 0.00 0.00 0.00 18 1019.7
20260507050216 68 67 0.0 0.0 0.00 0.00 0.00 18 1019.7
20260507045231 68 208 0.0 0.0 0.00 0.00 0.00 17 1019.5
20260507044316 69 202 2.0 3.0 0.00 0.00 0.00 17 1019.4
20260507043332 68 235 2.0 4.0 0.00 0.00 0.00 18 1019.2
20260507042417 69 305 3.0 3.0 0.00 0.00 0.00 18 1019.3